This is the latest recevied weather packets stored in our database for station/object KE6YLF. If no packets are shown the sender has not sent any weather packets the latest 10 day(s).
| Time | Temp. | Humidity | Pressure | Rain* | Wind** | Luminosity | Snow |
|---|---|---|---|---|---|---|---|
| 1778401891 | 27.78° C | 17% | 1073.3 hPa | 0 mm | - | - | - |
| 1778401587 | 27.78° C | 17% | 1073.2 hPa | 0 mm | - | - | - |
| 1778401284 | 27.78° C | 17% | 1073.2 hPa | 0 mm | - | - | - |
| 1778400983 | 27.78° C | 17% | 1073.4 hPa | 0 mm | - | - | - |
| 1778400679 | 28.89° C | 17% | 1073.3 hPa | 0 mm | - | - | - |
| 1778400373 | 30° C | 17% | 1073.4 hPa | 0 mm | - | - | - |
| 1778400071 | 30° C | 17% | 1073.4 hPa | 0 mm | - | - | - |
| 1778399768 | 30.56° C | 17% | 1073.5 hPa | 0 mm | - | - | - |
| 1778399464 | 30.56° C | 16% | 1073.6 hPa | 0 mm | - | - | - |
| 1778399161 | 30.56° C | 16% | 1073.5 hPa | 0 mm | - | - | - |
| 1778398857 | 30.56° C | 17% | 1073.5 hPa | 0 mm | - | - | - |
| 1778398553 | 30.56° C | 17% | 1073.5 hPa | 0 mm | - | - | - |
| 1778398250 | 30.56° C | 16% | 1073.5 hPa | 0 mm | - | - | - |
| 1778397947 | 30.56° C | 16% | 1073.5 hPa | 0 mm | - | - | - |
| 1778397642 | 30.56° C | 16% | 1073.3 hPa | 0 mm | - | - | - |
| 1778397339 | 30.56° C | 16% | 1073.3 hPa | 0 mm | - | - | - |
| 1778397037 | 31.11° C | 16% | 1073.3 hPa | 0 mm | - | - | - |
| 1778396734 | 30.56° C | 16% | 1073.5 hPa | 0 mm | - | - | - |
| 1778396431 | 31.11° C | 17% | 1073.4 hPa | 0 mm | - | - | - |
| 1778396127 | 31.11° C | 16% | 1073.5 hPa | 0 mm | - | - | - |
| 1778395823 | 31.11° C | 16% | 1073.4 hPa | 0 mm | - | - | - |
| 1778395520 | 31.67° C | 16% | 1073.5 hPa | 0 mm | - | - | - |
| 1778395216 | 31.67° C | 16% | 1073.4 hPa | 0 mm | - | - | - |
| 1778394913 | 31.67° C | 16% | 1073.4 hPa | 0 mm | - | - | - |
| 1778394611 | 31.67° C | 16% | 1073.3 hPa | 0 mm | - | - | - |
* Rain latest hour (hover to see other rain measurements)
** Current wind speed in m/s (hover to see current wind gust speed)